Time,TemperatureF,DewpointF,PressureIn,WindDirection,WindDirectionDegrees,WindSpeedMPH,WindSpeedGustMPH,Humidity,HourlyPrecipIn,Conditions,Clouds,dailyrainin,SoftwareType,DateUTC
2013-02-02 00:01:00,12.7,9.8,30.16,NW,311,0.0,1.0,88,0.00,-SN,OVC,0.00,WeatherDisplay:10.37,2013-02-02 05:01:00,
2013-02-02 00:06:00,12.7,9.8,30.16,NW,311,0.0,1.0,88,0.00,-SN,OVC,0.00,WeatherDisplay:10.37,2013-02-02 05:06:00,
2013-02-02 00:11:00,12.8,9.9,30.16,NW,311,0.0,2.0,88,0.00,-SN,OVC,0.00,WeatherDisplay:10.37,2013-02-02 05:11:00,
2013-02-02 00:16:00,12.9,10.0,30.16,NW,311,0.0,1.0,88,0.00,-SN,OVC,0.00,WeatherDisplay:10.37,2013-02-02 05:16:00,
2013-02-02 00:21:00,13.0,10.1,30.15,NW,311,0.0,2.0,88,0.00,-SN,OVC,0.00,WeatherDisplay:10.37,2013-02-02 05:21:00,
2013-02-02 00:26:00,13.1,10.5,30.15,NW,311,0.0,1.0,89,0.00,-SN,OVC,0.00,WeatherDisplay:10.37,2013-02-02 05:26:00,
2013-02-02 00:31:00,13.2,10.3,30.15,NW,311,0.0,2.0,88,0.00,-SN,OVC,0.00,WeatherDisplay:10.37,2013-02-02 05:31:00,
2013-02-02 00:36:00,13.4,10.8,30.15,NW,311,2.0,4.0,89,0.00,-SN,OVC,0.00,WeatherDisplay:10.37,2013-02-02 05:36:00,
2013-02-02 00:41:00,14.0,11.3,30.15,NW,311,1.0,5.0,89,0.00,-SN,OVC,0.00,WeatherDisplay:10.37,2013-02-02 05:41:00,
2013-02-02 00:46:00,14.9,12.5,30.15,NW,311,1.0,4.0,90,0.00,-SN,OVC,0.00,WeatherDisplay:10.37,2013-02-02 05:46:00,
2013-02-02 00:51:00,15.4,13.0,30.15,NW,311,3.0,8.0,90,0.00,-SN,OVC,0.00,WeatherDisplay:10.37,2013-02-02 05:51:00,
2013-02-02 00:56:00,15.8,13.4,30.14,NW,311,1.0,5.0,90,0.00,-SN,OVC,0.00,WeatherDisplay:10.37,2013-02-02 05:56:00,
2013-02-02 01:01:00,16.1,13.7,30.14,NW,311,0.0,4.0,90,0.00,-SN,OVC,0.00,WeatherDisplay:10.37,2013-02-02 06:01:00,
2013-02-02 01:06:00,16.2,13.8,30.14,NW,311,2.0,3.0,90,0.00,-SN,OVC,0.00,WeatherDisplay:10.37,2013-02-02 06:06:00,
2013-02-02 01:11:00,16.3,13.9,30.14,NW,311,2.0,5.0,90,0.00,-SN,OVC,0.00,WeatherDisplay:10.37,2013-02-02 06:11:00,
2013-02-02 01:16:00,16.3,13.7,30.14,NW,311,2.0,4.0,89,0.00,-SN,OVC,0.00,WeatherDisplay:10.37,2013-02-02 06:16:00,
2013-02-02 01:21:00,16.4,13.7,30.14,NW,311,2.0,4.0,89,0.00,-SN,OVC,0.00,WeatherDisplay:10.37,2013-02-02 06:21:00,
2013-02-02 01:26:00,16.4,13.7,30.13,NW,311,1.0,3.0,89,0.00,-SN,OVC,0.00,WeatherDisplay:10.37,2013-02-02 06:26:00,
2013-02-02 01:31:00,16.4,13.7,30.13,NW,311,1.0,3.0,89,0.00,-SN,OVC,0.00,WeatherDisplay:10.37,2013-02-02 06:31:00,
2013-02-02 01:36:00,16.4,13.7,30.13,NW,311,1.0,4.0,89,0.00,-SN,OVC,0.00,WeatherDisplay:10.37,2013-02-02 06:36:00,
2013-02-02 01:41:00,16.4,13.7,30.13,NW,311,2.0,4.0,89,0.00,-SN,OVC,0.00,WeatherDisplay:10.37,2013-02-02 06:41:00,
2013-02-02 01:46:00,16.4,13.7,30.13,NW,311,0.0,4.0,89,0.00,-SN,OVC,0.00,WeatherDisplay:10.37,2013-02-02 06:46:00,
2013-02-02 01:51:00,16.4,13.7,30.12,NW,311,1.0,3.0,89,0.00,-SN,OVC,0.00,WeatherDisplay:10.37,2013-02-02 06:51:00,
2013-02-02 01:56:00,16.4,13.8,30.12,NW,311,0.0,2.0,89,0.00,-SN,OVC,0.00,WeatherDisplay:10.37,2013-02-02 06:56:00,
2013-02-02 02:01:00,16.4,13.7,30.12,NW,311,1.0,2.0,89,0.00,-SN,OVC,0.00,WeatherDisplay:10.37,2013-02-02 07:01:00,
2013-02-02 02:06:00,16.4,14.0,30.12,NW,311,1.0,3.0,90,0.00,-SN,OVC,0.00,WeatherDisplay:10.37,2013-02-02 07:06:00,
2013-02-02 02:11:00,16.5,14.0,30.12,NW,311,1.0,3.0,90,0.00,-SN,OVC,0.00,WeatherDisplay:10.37,2013-02-02 07:11:00,
2013-02-02 02:16:00,16.5,13.8,30.12,NW,311,1.0,2.0,89,0.00,-SN,OVC,0.00,WeatherDisplay:10.37,2013-02-02 07:16:00,
2013-02-02 02:21:00,16.5,13.8,30.12,NW,311,0.0,2.0,89,0.00,-SN,OVC,0.00,WeatherDisplay:10.37,2013-02-02 07:21:00,
2013-02-02 02:26:00,16.5,14.1,30.12,NW,311,1.0,2.0,90,0.00,-SN,OVC,0.00,WeatherDisplay:10.37,2013-02-02 07:26:00,
2013-02-02 02:31:00,16.6,14.2,30.12,NW,311,0.0,2.0,90,0.00,-SN,OVC,0.00,WeatherDisplay:10.37,2013-02-02 07:31:00,
2013-02-02 02:36:00,16.6,14.2,30.12,NW,311,0.0,1.0,90,0.00,-SN,OVC,0.00,WeatherDisplay:10.37,2013-02-02 07:36:00,
2013-02-02 02:41:00,16.6,14.2,30.12,NW,311,0.0,1.0,90,0.00,-SN,OVC,0.00,WeatherDisplay:10.37,2013-02-02 07:41:00,
2013-02-02 02:46:00,16.7,14.3,30.11,NW,311,0.0,1.0,90,0.00,-SN,OVC,0.00,WeatherDisplay:10.37,2013-02-02 07:46:00,
2013-02-02 02:51:00,16.7,14.3,30.11,NW,311,1.0,3.0,90,0.00,-SN,OVC,0.00,WeatherDisplay:10.37,2013-02-02 07:51:00,
2013-02-02 02:56:00,16.8,14.4,30.11,NW,311,0.0,2.0,90,0.00,-SN,OVC,0.00,WeatherDisplay:10.37,2013-02-02 07:56:00,
2013-02-02 03:01:00,16.8,14.4,30.11,NW,311,0.0,2.0,90,0.00,-SN,OVC,0.00,WeatherDisplay:10.37,2013-02-02 08:01:00,
2013-02-02 03:06:00,16.9,14.5,30.11,NW,311,0.0,2.0,90,0.00,-SN,OVC,0.00,WeatherDisplay:10.37,2013-02-02 08:06:00,
2013-02-02 03:11:00,17.0,14.6,30.11,NW,311,0.0,3.0,90,0.00,-SN,OVC,0.00,WeatherDisplay:10.37,2013-02-02 08:11:00,
2013-02-02 03:16:00,17.0,14.6,30.11,NW,311,0.0,3.0,90,0.00,-SN,OVC,0.00,WeatherDisplay:10.37,2013-02-02 08:16:00,
2013-02-02 03:21:00,17.1,14.7,30.10,NW,311,0.0,1.0,90,0.00,-SN,OVC,0.00,WeatherDisplay:10.37,2013-02-02 08:21:00,
2013-02-02 03:26:00,17.1,14.7,30.10,NW,311,0.0,2.0,90,0.00,-SN,OVC,0.00,WeatherDisplay:10.37,2013-02-02 08:26:00,
2013-02-02 03:31:00,17.2,14.7,30.10,NW,311,0.0,1.0,90,0.00,-SN,OVC,0.00,WeatherDisplay:10.37,2013-02-02 08:31:00,
2013-02-02 03:36:00,17.2,14.8,30.10,NW,311,0.0,3.0,90,0.00,-SN,OVC,0.00,WeatherDisplay:10.37,2013-02-02 08:36:00,
2013-02-02 03:41:00,17.2,14.8,30.09,NW,311,1.0,2.0,90,0.00,-SN,OVC,0.00,WeatherDisplay:10.37,2013-02-02 08:41:00,
2013-02-02 03:46:00,17.3,14.9,30.09,NW,311,0.0,1.0,90,0.00,-SN,OVC,0.00,WeatherDisplay:10.37,2013-02-02 08:46:00,
2013-02-02 03:51:00,17.3,14.8,30.09,NW,311,0.0,1.0,90,0.00,-SN,OVC,0.00,WeatherDisplay:10.37,2013-02-02 08:51:00,
2013-02-02 03:56:00,17.0,14.5,30.08,NW,311,0.0,0.0,90,0.00,-SN,OVC,0.00,WeatherDisplay:10.37,2013-02-02 08:56:00,
2013-02-02 04:01:00,16.6,13.9,30.08,NW,311,0.0,1.0,89,0.00,-SN,OVC,0.00,WeatherDisplay:10.37,2013-02-02 09:01:00,
2013-02-02 04:06:00,16.3,13.6,30.08,NW,311,0.0,1.0,89,0.00,-SN,OVC,0.00,WeatherDisplay:10.37,2013-02-02 09:06:00,
2013-02-02 04:11:00,15.9,13.3,30.08,NW,311,1.0,2.0,89,0.00,-SN,OVC,0.00,WeatherDisplay:10.37,2013-02-02 09:11:00,
2013-02-02 04:16:00,15.7,13.0,30.08,NW,311,0.0,2.0,89,0.00,-SN,OVC,0.00,WeatherDisplay:10.37,2013-02-02 09:16:00,
2013-02-02 04:21:00,15.5,12.8,30.08,NW,311,0.0,2.0,89,0.00,-SN,OVC,0.00,WeatherDisplay:10.37,2013-02-02 09:21:00,
2013-02-02 04:26:00,15.3,12.6,30.07,NW,311,0.0,2.0,89,0.00,-SN,OVC,0.00,WeatherDisplay:10.37,2013-02-02 09:26:00,
2013-02-02 04:31:00,15.2,12.5,30.07,NW,311,0.0,1.0,89,0.00,-SN,OVC,0.00,WeatherDisplay:10.37,2013-02-02 09:31:00,
2013-02-02 04:36:00,15.2,12.5,30.07,NW,311,0.0,2.0,89,0.00,-SN,OVC,0.00,WeatherDisplay:10.37,2013-02-02 09:36:00,
2013-02-02 04:41:00,15.1,12.4,30.07,NW,311,0.0,0.0,89,0.00,-SN,OVC,0.00,WeatherDisplay:10.37,2013-02-02 09:41:00,
2013-02-02 04:46:00,15.1,12.4,30.06,NW,311,0.0,0.0,89,0.00,-SN,OVC,0.00,WeatherDisplay:10.37,2013-02-02 09:46:00,
2013-02-02 04:51:00,15.1,12.4,30.06,NW,311,0.0,2.0,89,0.00,-SN,OVC,0.00,WeatherDisplay:10.37,2013-02-02 09:51:00,
2013-02-02 04:56:00,15.1,12.4,30.06,NW,311,0.0,1.0,89,0.00,-SN,OVC,0.00,WeatherDisplay:10.37,2013-02-02 09:56:00,
2013-02-02 05:01:00,15.0,12.3,30.05,NW,311,0.0,2.0,89,0.00,-SN,OVC,0.00,WeatherDisplay:10.37,2013-02-02 10:01:00,
2013-02-02 05:06:00,15.0,12.3,30.05,NW,311,1.0,3.0,89,0.00,-SN,OVC,0.00,WeatherDisplay:10.37,2013-02-02 10:06:00,
2013-02-02 05:11:00,15.0,12.3,30.05,NW,311,0.0,2.0,89,0.00,-SN,OVC,0.00,WeatherDisplay:10.37,2013-02-02 10:11:00,
2013-02-02 05:16:00,15.0,12.3,30.05,NW,311,0.0,2.0,89,0.00,-SN,OVC,0.00,WeatherDisplay:10.37,2013-02-02 10:16:00,
2013-02-02 05:21:00,14.9,12.2,30.05,NW,311,0.0,2.0,89,0.00,-SN,OVC,0.00,WeatherDisplay:10.37,2013-02-02 10:21:00,
2013-02-02 05:26:00,14.9,12.2,30.04,NW,311,0.0,1.0,89,0.00,-SN,OVC,0.00,WeatherDisplay:10.37,2013-02-02 10:26:00,
2013-02-02 05:31:00,14.9,12.2,30.04,NW,311,0.0,2.0,89,0.00,-SN,OVC,0.00,WeatherDisplay:10.37,2013-02-02 10:31:00,
2013-02-02 05:36:00,14.9,12.2,30.04,NW,311,0.0,2.0,89,0.00,-SN,OVC,0.00,WeatherDisplay:10.37,2013-02-02 10:36:00,
2013-02-02 05:41:00,14.9,12.2,30.04,NW,311,0.0,2.0,89,0.00,-SN,OVC,0.00,WeatherDisplay:10.37,2013-02-02 10:41:00,
2013-02-02 05:46:00,14.9,12.2,30.04,NW,311,0.0,1.0,89,0.00,-SN,OVC,0.00,WeatherDisplay:10.37,2013-02-02 10:46:00,
2013-02-02 05:51:00,14.9,12.3,30.04,NW,311,0.0,2.0,89,0.00,-SN,OVC,0.00,WeatherDisplay:10.37,2013-02-02 10:51:00,
2013-02-02 05:56:00,15.0,12.3,30.04,NW,311,0.0,2.0,89,0.00,-SN,OVC,0.00,WeatherDisplay:10.37,2013-02-02 10:56:00,
2013-02-02 06:01:00,15.0,12.3,30.04,NW,311,1.0,3.0,89,0.00,-SN,OVC,0.00,WeatherDisplay:10.37,2013-02-02 11:01:00,
2013-02-02 06:06:00,15.0,12.3,30.03,NW,311,0.0,3.0,89,0.00,-SN,OVC,0.00,WeatherDisplay:10.37,2013-02-02 11:06:00,
2013-02-02 06:11:00,15.1,12.4,30.03,NW,311,0.0,1.0,89,0.00,-SN,OVC,0.00,WeatherDisplay:10.37,2013-02-02 11:11:00,
2013-02-02 06:16:00,15.1,12.4,30.03,NW,311,0.0,2.0,89,0.00,-SN,OVC,0.00,WeatherDisplay:10.37,2013-02-02 11:16:00,
2013-02-02 06:21:00,15.2,12.5,30.03,NW,311,1.0,2.0,89,0.00,-SN,OVC,0.00,WeatherDisplay:10.37,2013-02-02 11:21:00,
2013-02-02 06:26:00,15.2,12.5,30.03,NW,311,0.0,1.0,89,0.00,-SN,OVC,0.00,WeatherDisplay:10.37,2013-02-02 11:26:00,
2013-02-02 06:31:00,15.3,12.9,30.03,NW,311,0.0,0.0,90,0.00,-SN,OVC,0.00,WeatherDisplay:10.37,2013-02-02 11:31:00,
2013-02-02 06:36:00,15.3,12.9,30.02,NW,311,0.0,2.0,90,0.00,-SN,OVC,0.00,WeatherDisplay:10.37,2013-02-02 11:36:00,
2013-02-02 06:41:00,15.4,13.0,30.02,NW,311,0.0,2.0,90,0.00,-SN,OVC,0.00,WeatherDisplay:10.37,2013-02-02 11:41:00,
2013-02-02 06:46:00,15.4,13.0,30.02,NW,311,0.0,0.0,90,0.00,-SN,OVC,0.00,WeatherDisplay:10.37,2013-02-02 11:46:00,
2013-02-02 06:51:00,15.5,13.1,30.02,NW,311,0.0,0.0,90,0.00,-SN,OVC,0.00,WeatherDisplay:10.37,2013-02-02 11:51:00,
2013-02-02 06:56:00,15.5,13.1,30.02,NW,311,0.0,0.0,90,0.00,-SN,OVC,0.00,WeatherDisplay:10.37,2013-02-02 11:56:00,
2013-02-02 07:01:00,15.6,13.2,30.02,NW,311,0.0,0.0,90,0.00,-SN,OVC,0.00,WeatherDisplay:10.37,2013-02-02 12:01:00,
2013-02-02 07:06:00,15.6,13.2,30.02,NW,311,0.0,0.0,90,0.00,-SN,OVC,0.00,WeatherDisplay:10.37,2013-02-02 12:06:00,
2013-02-02 07:11:00,15.6,13.2,30.02,NW,311,0.0,0.0,90,0.00,-SN,OVC,0.00,WeatherDisplay:10.37,2013-02-02 12:11:00,
2013-02-02 07:16:00,15.7,13.2,30.02,NW,311,0.0,0.0,90,0.00,-SN,OVC,0.00,WeatherDisplay:10.37,2013-02-02 12:16:00,
2013-02-02 07:21:00,15.7,13.3,30.02,NW,311,0.0,0.0,90,0.00,-SN,OVC,0.00,WeatherDisplay:10.37,2013-02-02 12:21:00,
2013-02-02 07:26:00,15.7,13.3,30.02,NW,311,0.0,0.0,90,0.00,-SN,OVC,0.00,WeatherDisplay:10.37,2013-02-02 12:26:00,
2013-02-02 07:31:00,15.7,13.3,30.02,NW,311,0.0,0.0,90,0.00,-SN,OVC,0.00,WeatherDisplay:10.37,2013-02-02 12:31:00,
2013-02-02 07:36:00,15.8,13.4,30.02,NW,311,0.0,0.0,90,0.00,-SN,OVC,0.00,WeatherDisplay:10.37,2013-02-02 12:36:00,
2013-02-02 07:41:00,15.8,13.4,30.02,NW,311,0.0,0.0,90,0.00,-SN,OVC,0.00,WeatherDisplay:10.37,2013-02-02 12:41:00,
2013-02-02 07:46:00,15.8,13.4,30.02,NW,311,1.0,2.0,90,0.00,-SN,OVC,0.00,WeatherDisplay:10.37,2013-02-02 12:46:00,
2013-02-02 07:51:00,15.8,13.2,30.02,NW,311,2.0,3.0,89,0.00,-SN,OVC,0.00,WeatherDisplay:10.37,2013-02-02 12:51:00,
2013-02-02 07:56:00,15.8,13.4,30.02,NW,311,3.0,4.0,90,0.00,-SN,OVC,0.00,WeatherDisplay:10.37,2013-02-02 12:56:00,
2013-02-02 08:11:00,15.8,13.1,30.02,NW,311,1.0,3.0,89,0.00,-SN,OVC,0.00,WeatherDisplay:10.37,2013-02-02 13:11:00,
2013-02-02 08:16:00,15.8,13.1,30.02,NW,311,1.0,2.0,89,0.00,-SN,OVC,0.00,WeatherDisplay:10.37,2013-02-02 13:16:00,
2013-02-02 08:21:00,15.8,13.1,30.02,NW,311,2.0,3.0,89,0.00,-SN,OVC,0.00,WeatherDisplay:10.37,2013-02-02 13:21:00,
2013-02-02 08:26:00,15.8,13.1,30.03,NW,311,2.0,5.0,89,0.00,-SN,OVC,0.00,WeatherDisplay:10.37,2013-02-02 13:26:00,
2013-02-02 08:31:00,15.7,13.0,30.03,NW,311,2.0,4.0,89,0.00,-SN,OVC,0.00,WeatherDisplay:10.37,2013-02-02 13:31:00,
2013-02-02 08:36:00,15.7,13.0,30.03,NW,311,5.0,6.0,89,0.00,-SN,OVC,0.00,WeatherDisplay:10.37,2013-02-02 13:36:00,
2013-02-02 08:41:00,15.6,13.0,30.03,NW,311,3.0,5.0,89,0.00,-SN,OVC,0.00,WeatherDisplay:10.37,2013-02-02 13:41:00,
2013-02-02 08:46:00,15.6,12.9,30.03,NW,311,5.0,5.0,89,0.00,-SN,OVC,0.00,WeatherDisplay:10.37,2013-02-02 13:46:00,
2013-02-02 08:51:00,15.6,12.7,30.03,NW,311,5.0,6.0,88,0.00,-SN,OVC,0.00,WeatherDisplay:10.37,2013-02-02 13:51:00,
2013-02-02 08:56:00,15.6,12.7,30.03,NW,311,6.0,7.0,88,0.00,-SN,OVC,0.00,WeatherDisplay:10.37,2013-02-02 13:56:00,
2013-02-02 09:01:00,15.6,12.4,30.03,NW,311,5.0,7.0,87,0.00,,OVC,0.00,WeatherDisplay:10.37,2013-02-02 14:01:00,
2013-02-02 09:06:00,15.6,12.4,30.03,NW,311,5.0,6.0,87,0.00,,OVC,0.00,WeatherDisplay:10.37,2013-02-02 14:06:00,
2013-02-02 09:11:00,15.5,12.1,30.03,NW,311,3.0,6.0,86,0.00,,OVC,0.00,WeatherDisplay:10.37,2013-02-02 14:11:00,
2013-02-02 09:16:00,15.5,12.1,30.03,NW,311,5.0,7.0,86,0.00,,OVC,0.00,WeatherDisplay:10.37,2013-02-02 14:16:00,
2013-02-02 09:21:00,15.6,12.1,30.03,NW,311,5.0,6.0,86,0.00,,OVC,0.00,WeatherDisplay:10.37,2013-02-02 14:21:00,
2013-02-02 09:26:00,15.6,12.4,30.03,NW,311,3.0,5.0,87,0.00,,OVC,0.00,WeatherDisplay:10.37,2013-02-02 14:26:00,
2013-02-02 09:31:00,15.6,12.4,30.03,NW,311,2.0,4.0,87,0.00,,OVC,0.00,WeatherDisplay:10.37,2013-02-02 14:31:00,
2013-02-02 09:36:00,15.5,12.3,30.03,NW,311,3.0,5.0,87,0.00,,OVC,0.00,WeatherDisplay:10.37,2013-02-02 14:36:00,
2013-02-02 09:41:00,15.4,12.2,30.03,NW,311,2.0,5.0,87,0.00,,OVC,0.00,WeatherDisplay:10.37,2013-02-02 14:41:00,
2013-02-02 09:46:00,15.4,12.2,30.02,NW,311,3.0,5.0,87,0.00,,OVC,0.00,WeatherDisplay:10.37,2013-02-02 14:46:00,
2013-02-02 09:51:00,15.4,12.2,30.02,NW,311,3.0,6.0,87,0.00,,OVC,0.00,WeatherDisplay:10.37,2013-02-02 14:51:00,
2013-02-02 09:56:00,15.5,12.3,30.02,NW,311,3.0,4.0,87,0.00,,OVC,0.00,WeatherDisplay:10.37,2013-02-02 14:56:00,
2013-02-02 10:01:00,15.5,12.3,30.02,NW,311,3.0,5.0,87,0.00,-SN,OVC,0.00,WeatherDisplay:10.37,2013-02-02 15:01:00,
2013-02-02 10:06:00,15.5,12.3,30.02,NW,311,3.0,5.0,87,0.00,-SN,OVC,0.00,WeatherDisplay:10.37,2013-02-02 15:06:00,
2013-02-02 10:11:00,15.6,12.4,30.02,NW,311,3.0,5.0,87,0.00,-SN,OVC,0.00,WeatherDisplay:10.37,2013-02-02 15:11:00,
2013-02-02 10:16:00,15.7,12.5,30.02,NW,311,2.0,5.0,87,0.00,-SN,OVC,0.00,WeatherDisplay:10.37,2013-02-02 15:16:00,
2013-02-02 10:21:00,15.7,12.5,30.02,NW,311,3.0,5.0,87,0.00,-SN,OVC,0.00,WeatherDisplay:10.37,2013-02-02 15:21:00,
2013-02-02 10:26:00,15.8,12.6,30.02,NW,311,3.0,6.0,87,0.00,-SN,OVC,0.00,WeatherDisplay:10.37,2013-02-02 15:26:00,
2013-02-02 10:31:00,15.9,12.7,30.02,NW,311,3.0,5.0,87,0.00,-SN,OVC,0.00,WeatherDisplay:10.37,2013-02-02 15:31:00,
2013-02-02 10:36:00,15.9,12.5,30.02,NW,311,6.0,7.0,86,0.00,-SN,OVC,0.00,WeatherDisplay:10.37,2013-02-02 15:36:00,
2013-02-02 10:41:00,15.7,12.0,30.02,NW,311,7.0,9.0,85,0.00,-SN,OVC,0.00,WeatherDisplay:10.37,2013-02-02 15:41:00,
2013-02-02 10:46:00,15.6,11.9,30.02,NW,311,5.0,6.0,85,0.00,-SN,OVC,0.00,WeatherDisplay:10.37,2013-02-02 15:46:00,
2013-02-02 10:51:00,15.6,11.6,30.02,NW,311,5.0,7.0,84,0.00,-SN,OVC,0.00,WeatherDisplay:10.37,2013-02-02 15:51:00,
2013-02-02 10:56:00,15.7,12.0,30.03,NW,311,6.0,8.0,85,0.00,-SN,OVC,0.00,WeatherDisplay:10.37,2013-02-02 15:56:00,
2013-02-02 11:01:00,15.6,11.6,30.02,NW,311,5.0,7.0,84,0.00,-SN,OVC,0.00,WeatherDisplay:10.37,2013-02-02 16:01:00,
2013-02-02 11:11:00,15.6,11.6,30.02,NW,311,5.0,6.0,84,0.00,-SN,OVC,0.00,WeatherDisplay:10.37,2013-02-02 16:11:00,
2013-02-02 11:16:00,15.6,11.9,30.03,NW,311,6.0,7.0,85,0.00,-SN,OVC,0.00,WeatherDisplay:10.37,2013-02-02 16:16:00,
2013-02-02 11:21:00,15.4,11.4,30.03,NW,311,7.0,9.0,84,0.00,-SN,OVC,0.00,WeatherDisplay:10.37,2013-02-02 16:21:00,
2013-02-02 11:26:00,15.3,11.0,30.03,NW,311,7.0,10.0,83,0.00,-SN,OVC,0.00,WeatherDisplay:10.37,2013-02-02 16:26:00,
2013-02-02 11:31:00,15.3,11.1,30.03,NW,311,5.0,7.0,83,0.00,-SN,OVC,0.00,WeatherDisplay:10.37,2013-02-02 16:31:00,
2013-02-02 11:36:00,15.2,10.4,30.03,NW,311,7.0,9.0,81,0.00,-SN,OVC,0.00,WeatherDisplay:10.37,2013-02-02 16:36:00,
2013-02-02 11:41:00,15.1,10.3,30.03,NW,311,6.0,8.0,81,0.00,-SN,OVC,0.00,WeatherDisplay:10.37,2013-02-02 16:41:00,
2013-02-02 11:46:00,15.2,10.4,30.03,NW,311,6.0,9.0,81,0.00,-SN,OVC,0.00,WeatherDisplay:10.37,2013-02-02 16:46:00,
2013-02-02 11:51:00,15.0,10.3,30.03,NW,311,6.0,8.0,81,0.00,-SN,OVC,0.00,WeatherDisplay:10.37,2013-02-02 16:51:00,
2013-02-02 11:56:00,15.0,9.9,30.03,NW,311,6.0,8.0,80,0.00,-SN,OVC,0.00,WeatherDisplay:10.37,2013-02-02 16:56:00,
2013-02-02 12:01:00,15.0,10.0,30.02,NW,311,6.0,8.0,80,0.00,-SN,OVC,0.00,WeatherDisplay:10.37,2013-02-02 17:01:00,
2013-02-02 12:06:00,15.0,9.9,30.02,NW,311,6.0,10.0,80,0.00,-SN,OVC,0.00,WeatherDisplay:10.37,2013-02-02 17:06:00,
2013-02-02 12:11:00,15.0,9.7,30.02,NW,311,7.0,9.0,79,0.00,-SN,OVC,0.00,WeatherDisplay:10.37,2013-02-02 17:11:00,
2013-02-02 12:16:00,15.0,9.9,30.03,NW,311,7.0,8.0,80,0.00,-SN,OVC,0.00,WeatherDisplay:10.37,2013-02-02 17:16:00,
2013-02-02 12:21:00,15.1,10.3,30.02,NW,311,5.0,7.0,81,0.00,-SN,OVC,0.00,WeatherDisplay:10.37,2013-02-02 17:21:00,
2013-02-02 12:26:00,15.1,9.8,30.02,NW,311,6.0,8.0,79,0.00,-SN,OVC,0.00,WeatherDisplay:10.37,2013-02-02 17:26:00,
2013-02-02 12:31:00,15.0,9.4,30.02,NW,311,7.0,9.0,78,0.00,-SN,OVC,0.00,WeatherDisplay:10.37,2013-02-02 17:31:00,
2013-02-02 12:36:00,15.0,9.7,30.02,NW,311,6.0,8.0,79,0.00,-SN,OVC,0.00,WeatherDisplay:10.37,2013-02-02 17:36:00,
2013-02-02 12:41:00,15.0,9.9,30.02,NW,311,6.0,8.0,80,0.00,-SN,OVC,0.00,WeatherDisplay:10.37,2013-02-02 17:41:00,
2013-02-02 12:46:00,15.1,9.8,30.01,NW,311,8.0,10.0,79,0.00,-SN,OVC,0.00,WeatherDisplay:10.37,2013-02-02 17:46:00,
2013-02-02 12:51:00,15.1,9.8,30.01,NW,311,7.0,9.0,79,0.00,-SN,OVC,0.00,WeatherDisplay:10.37,2013-02-02 17:51:00,
2013-02-02 12:56:00,15.1,9.2,30.01,NW,311,6.0,10.0,77,0.00,-SN,OVC,0.00,WeatherDisplay:10.37,2013-02-02 17:56:00,
2013-02-02 13:01:00,15.2,9.3,30.01,NW,311,7.0,9.0,77,0.00,-SN,OVC,0.00,WeatherDisplay:10.37,2013-02-02 18:01:00,
2013-02-02 13:06:00,15.2,9.6,30.01,NW,311,6.0,7.0,78,0.00,-SN,OVC,0.00,WeatherDisplay:10.37,2013-02-02 18:06:00,
2013-02-02 13:11:00,15.3,9.7,30.01,NW,311,5.0,6.0,78,0.00,-SN,OVC,0.00,WeatherDisplay:10.37,2013-02-02 18:11:00,
2013-02-02 13:16:00,15.3,9.7,30.01,NW,311,6.0,8.0,78,0.00,-SN,OVC,0.00,WeatherDisplay:10.37,2013-02-02 18:16:00,
2013-02-02 13:21:00,15.3,9.6,30.01,NW,311,6.0,8.0,78,0.00,-SN,OVC,0.00,WeatherDisplay:10.37,2013-02-02 18:21:00,
2013-02-02 13:26:00,15.3,10.0,30.01,NW,311,6.0,7.0,79,0.00,-SN,OVC,0.00,WeatherDisplay:10.37,2013-02-02 18:26:00,
2013-02-02 13:31:00,15.2,9.9,30.01,NW,311,6.0,8.0,79,0.00,-SN,OVC,0.00,WeatherDisplay:10.37,2013-02-02 18:31:00,
2013-02-02 13:36:00,15.4,10.1,30.01,NW,311,5.0,7.0,79,0.00,-SN,OVC,0.00,WeatherDisplay:10.37,2013-02-02 18:36:00,
2013-02-02 13:41:00,15.4,10.1,30.01,NW,311,3.0,7.0,79,0.00,-SN,OVC,0.00,WeatherDisplay:10.37,2013-02-02 18:41:00,
2013-02-02 13:46:00,15.5,10.4,30.01,NW,311,5.0,6.0,80,0.00,-SN,OVC,0.00,WeatherDisplay:10.37,2013-02-02 18:46:00,
2013-02-02 13:51:00,15.5,10.1,30.01,NW,311,5.0,7.0,79,0.00,-SN,OVC,0.00,WeatherDisplay:10.37,2013-02-02 18:51:00,
2013-02-02 13:56:00,15.5,10.1,30.01,NW,311,5.0,7.0,79,0.00,-SN,OVC,0.00,WeatherDisplay:10.37,2013-02-02 18:56:00,
2013-02-02 14:01:00,15.5,10.1,30.01,NW,311,5.0,7.0,79,0.00,-SN,OVC,0.00,WeatherDisplay:10.37,2013-02-02 19:01:00,
2013-02-02 14:06:00,15.6,10.0,30.01,NW,311,5.0,7.0,78,0.00,-SN,OVC,0.00,WeatherDisplay:10.37,2013-02-02 19:06:00,
2013-02-02 14:11:00,15.6,9.7,30.01,NW,311,5.0,7.0,77,0.00,-SN,OVC,0.00,WeatherDisplay:10.37,2013-02-02 19:11:00,
2013-02-02 14:16:00,15.7,10.3,30.00,NW,311,5.0,7.0,79,0.00,-SN,OVC,0.00,WeatherDisplay:10.37,2013-02-02 19:16:00,
2013-02-02 14:21:00,15.7,9.8,30.00,NW,311,7.0,9.0,77,0.00,-SN,OVC,0.00,WeatherDisplay:10.37,2013-02-02 19:21:00,
2013-02-02 14:26:00,15.7,9.8,30.00,NW,311,5.0,8.0,77,0.00,-SN,OVC,0.00,WeatherDisplay:10.37,2013-02-02 19:26:00,
2013-02-02 14:31:00,15.7,9.8,30.00,NW,311,7.0,8.0,77,0.00,-SN,OVC,0.00,WeatherDisplay:10.37,2013-02-02 19:31:00,
2013-02-02 14:36:00,15.7,9.5,30.01,NW,311,5.0,6.0,76,0.00,-SN,OVC,0.00,WeatherDisplay:10.37,2013-02-02 19:36:00,
2013-02-02 14:41:00,15.8,9.6,30.01,NW,311,5.0,7.0,76,0.00,-SN,OVC,0.00,WeatherDisplay:10.37,2013-02-02 19:41:00,
2013-02-02 14:46:00,15.9,9.7,30.01,NW,311,5.0,7.0,76,0.00,-SN,OVC,0.00,WeatherDisplay:10.37,2013-02-02 19:46:00,
2013-02-02 14:51:00,16.0,9.8,30.01,NW,311,5.0,7.0,76,0.00,-SN,OVC,0.00,WeatherDisplay:10.37,2013-02-02 19:51:00,
2013-02-02 14:56:00,16.0,9.8,30.01,NW,311,6.0,9.0,76,0.00,-SN,OVC,0.00,WeatherDisplay:10.37,2013-02-02 19:56:00,
2013-02-02 15:01:00,16.0,10.1,30.01,NW,311,5.0,7.0,77,0.00,-SN,OVC,0.00,WeatherDisplay:10.37,2013-02-02 20:01:00,
2013-02-02 15:06:00,16.0,9.8,30.01,NW,311,5.0,7.0,76,0.00,-SN,OVC,0.00,WeatherDisplay:10.37,2013-02-02 20:06:00,
2013-02-02 15:11:00,16.0,10.1,30.01,NW,311,6.0,8.0,77,0.00,-SN,OVC,0.00,WeatherDisplay:10.37,2013-02-02 20:11:00,
2013-02-02 15:16:00,15.9,9.7,30.01,NW,311,7.0,9.0,76,0.00,-SN,OVC,0.00,WeatherDisplay:10.37,2013-02-02 20:16:00,
2013-02-02 15:21:00,15.7,8.9,30.01,NW,311,8.0,10.0,74,0.00,-SN,OVC,0.00,WeatherDisplay:10.37,2013-02-02 20:21:00,
2013-02-02 15:26:00,15.5,8.7,30.01,NW,311,5.0,9.0,74,0.00,-SN,OVC,0.00,WeatherDisplay:10.37,2013-02-02 20:26:00,
2013-02-02 15:31:00,15.5,8.7,30.01,NW,311,6.0,8.0,74,0.00,-SN,OVC,0.00,WeatherDisplay:10.37,2013-02-02 20:31:00,
2013-02-02 15:41:00,15.7,8.9,30.01,NW,311,5.0,7.0,74,0.00,-SN,OVC,0.00,WeatherDisplay:10.37,2013-02-02 20:41:00,
2013-02-02 15:46:00,15.8,8.9,30.01,NW,311,5.0,7.0,74,0.00,-SN,OVC,0.00,WeatherDisplay:10.37,2013-02-02 20:46:00,
2013-02-02 15:51:00,15.7,8.9,30.02,NW,311,6.0,8.0,74,0.00,-SN,OVC,0.00,WeatherDisplay:10.37,2013-02-02 20:51:00,
2013-02-02 15:56:00,15.8,9.0,30.02,NW,311,5.0,7.0,74,0.00,-SN,OVC,0.00,WeatherDisplay:10.37,2013-02-02 20:56:00,
2013-02-02 16:01:00,15.9,9.1,30.02,NW,311,6.0,8.0,74,0.00,-SN,OVC,0.00,WeatherDisplay:10.37,2013-02-02 21:01:00,
2013-02-02 16:06:00,16.1,9.3,30.02,NW,311,6.0,7.0,74,0.00,-SN,OVC,0.00,WeatherDisplay:10.37,2013-02-02 21:06:00,
2013-02-02 16:11:00,15.9,8.8,30.02,NW,311,5.0,8.0,73,0.00,-SN,OVC,0.00,WeatherDisplay:10.37,2013-02-02 21:11:00,
2013-02-02 16:16:00,16.0,8.9,30.02,NW,311,3.0,5.0,73,0.00,-SN,OVC,0.00,WeatherDisplay:10.37,2013-02-02 21:16:00,
2013-02-02 16:21:00,15.9,8.8,30.02,NW,311,5.0,8.0,73,0.00,-SN,OVC,0.00,WeatherDisplay:10.37,2013-02-02 21:21:00,
2013-02-02 16:26:00,15.8,8.7,30.02,NW,311,3.0,6.0,73,0.00,-SN,OVC,0.00,WeatherDisplay:10.37,2013-02-02 21:26:00,
2013-02-02 16:31:00,15.7,8.2,30.02,NW,311,6.0,8.0,72,0.00,-SN,OVC,0.00,WeatherDisplay:10.37,2013-02-02 21:31:00,
2013-02-02 16:36:00,15.6,8.2,30.03,NW,311,6.0,8.0,72,0.00,-SN,OVC,0.00,WeatherDisplay:10.37,2013-02-02 21:36:00,
2013-02-02 16:41:00,15.4,8.0,30.03,NW,311,5.0,7.0,72,0.00,-SN,OVC,0.00,WeatherDisplay:10.37,2013-02-02 21:41:00,
2013-02-02 16:46:00,15.4,8.0,30.03,NW,311,5.0,6.0,72,0.00,-SN,OVC,0.00,WeatherDisplay:10.37,2013-02-02 21:46:00,
2013-02-02 16:51:00,15.6,8.2,30.03,NW,311,5.0,6.0,72,0.00,-SN,OVC,0.00,WeatherDisplay:10.37,2013-02-02 21:51:00,
2013-02-02 16:56:00,15.7,8.3,30.03,NW,311,6.0,7.0,72,0.00,-SN,OVC,0.00,WeatherDisplay:10.37,2013-02-02 21:56:00,
2013-02-02 17:01:00,15.7,8.0,30.03,NW,311,5.0,7.0,71,0.00,BKN,OVC,0.00,WeatherDisplay:10.37,2013-02-02 22:01:00,
2013-02-02 17:06:00,15.6,7.9,30.03,NW,311,5.0,7.0,71,0.00,BKN,OVC,0.00,WeatherDisplay:10.37,2013-02-02 22:06:00,
2013-02-02 17:11:00,15.7,7.9,30.03,NW,311,5.0,7.0,71,0.00,BKN,OVC,0.00,WeatherDisplay:10.37,2013-02-02 22:11:00,
2013-02-02 17:16:00,15.7,8.0,30.03,NW,311,2.0,5.0,71,0.00,BKN,OVC,0.00,WeatherDisplay:10.37,2013-02-02 22:16:00,
2013-02-02 17:21:00,15.7,7.6,30.03,NW,311,3.0,4.0,70,0.00,BKN,OVC,0.00,WeatherDisplay:10.37,2013-02-02 22:21:00,
2013-02-02 17:26:00,15.6,7.9,30.03,NW,311,2.0,4.0,71,0.00,BKN,OVC,0.00,WeatherDisplay:10.37,2013-02-02 22:26:00,
2013-02-02 17:31:00,15.5,7.8,30.04,NW,311,2.0,4.0,71,0.00,BKN,OVC,0.00,WeatherDisplay:10.37,2013-02-02 22:31:00,
2013-02-02 17:36:00,15.4,7.7,30.04,NW,311,1.0,4.0,71,0.00,BKN,OVC,0.00,WeatherDisplay:10.37,2013-02-02 22:36:00,
2013-02-02 17:41:00,15.4,7.7,30.04,NW,311,2.0,3.0,71,0.00,BKN,OVC,0.00,WeatherDisplay:10.37,2013-02-02 22:41:00,
2013-02-02 17:46:00,15.3,7.6,30.04,NW,311,1.0,4.0,71,0.00,BKN,OVC,0.00,WeatherDisplay:10.37,2013-02-02 22:46:00,
2013-02-02 17:51:00,15.2,7.5,30.04,NW,311,1.0,2.0,71,0.00,BKN,OVC,0.00,WeatherDisplay:10.37,2013-02-02 22:51:00,
2013-02-02 17:56:00,15.2,7.8,30.04,NW,311,1.0,2.0,72,0.00,BKN,OVC,0.00,WeatherDisplay:10.37,2013-02-02 22:56:00,
2013-02-02 18:01:00,15.2,7.8,30.04,NW,311,2.0,4.0,72,0.00,BKN,OVC,0.00,WeatherDisplay:10.37,2013-02-02 23:01:00,
2013-02-02 18:06:00,15.1,7.7,30.04,NW,311,1.0,3.0,72,0.00,BKN,OVC,0.00,WeatherDisplay:10.37,2013-02-02 23:06:00,
2013-02-02 18:11:00,14.9,7.8,30.05,NW,311,1.0,3.0,73,0.00,BKN,OVC,0.00,WeatherDisplay:10.37,2013-02-02 23:11:00,
2013-02-02 18:16:00,14.8,7.7,30.05,NW,311,2.0,5.0,73,0.00,BKN,OVC,0.00,WeatherDisplay:10.37,2013-02-02 23:16:00,
2013-02-02 18:21:00,15.0,7.6,30.05,NW,311,2.0,4.0,72,0.00,BKN,OVC,0.00,WeatherDisplay:10.37,2013-02-02 23:21:00,
2013-02-02 18:26:00,15.0,7.6,30.05,NW,311,1.0,3.0,72,0.00,BKN,OVC,0.00,WeatherDisplay:10.37,2013-02-02 23:26:00,
2013-02-02 18:31:00,14.7,7.6,30.05,NW,311,1.0,2.0,73,0.00,BKN,OVC,0.00,WeatherDisplay:10.37,2013-02-02 23:31:00,
2013-02-02 18:36:00,14.2,7.2,30.05,NW,311,1.0,2.0,73,0.00,BKN,OVC,0.00,WeatherDisplay:10.37,2013-02-02 23:36:00,
2013-02-02 18:41:00,13.8,7.0,30.05,NW,311,0.0,1.0,74,0.00,BKN,OVC,0.00,WeatherDisplay:10.37,2013-02-02 23:41:00,
2013-02-02 18:46:00,13.3,6.8,30.05,NW,311,0.0,0.0,75,0.00,BKN,OVC,0.00,WeatherDisplay:10.37,2013-02-02 23:46:00,
2013-02-02 18:51:00,12.5,6.1,30.05,NW,311,0.0,1.0,75,0.00,BKN,OVC,0.00,WeatherDisplay:10.37,2013-02-02 23:51:00,
2013-02-02 18:56:00,12.1,6.3,30.05,NW,311,0.0,0.0,77,0.00,BKN,OVC,0.00,WeatherDisplay:10.37,2013-02-02 23:56:00,
2013-02-02 19:01:00,11.8,6.3,30.05,NW,311,0.0,0.0,78,0.00,BKN,OVC,0.00,WeatherDisplay:10.37,2013-02-03 00:01:00,
2013-02-02 19:06:00,11.4,5.9,30.05,NW,311,0.0,0.0,78,0.00,BKN,OVC,0.00,WeatherDisplay:10.37,2013-02-03 00:06:00,
2013-02-02 19:11:00,11.0,5.5,30.05,NW,311,0.0,0.0,78,0.00,BKN,OVC,0.00,WeatherDisplay:10.37,2013-02-03 00:11:00,
2013-02-02 20:21:00,5.8,2.0,30.07,NW,312,0.0,0.0,84,0.00,BKN,OVC,0.00,WeatherDisplay:10.37,2013-02-03 01:21:00,
2013-02-02 20:26:00,5.8,2.3,30.07,NW,311,0.0,0.0,85,0.00,BKN,OVC,0.00,WeatherDisplay:10.37,2013-02-03 01:26:00,
2013-02-02 20:36:00,5.4,1.9,30.07,NW,311,0.0,0.0,85,0.00,BKN,OVC,0.00,WeatherDisplay:10.37,2013-02-03 01:36:00,
2013-02-02 20:46:00,4.7,1.0,30.07,NW,311,0.0,0.0,84,0.00,BKN,OVC,0.00,WeatherDisplay:10.37,2013-02-03 01:46:00,
2013-02-02 20:51:00,4.5,0.7,30.07,NW,311,0.0,0.0,84,0.00,BKN,OVC,0.00,WeatherDisplay:10.37,2013-02-03 01:51:00,
2013-02-02 20:56:00,4.5,1.0,30.07,NW,311,0.0,0.0,85,0.00,BKN,OVC,0.00,WeatherDisplay:10.37,2013-02-03 01:56:00,
2013-02-02 21:01:00,4.4,0.9,30.07,NW,311,0.0,0.0,85,0.00,FEW,OVC,0.00,WeatherDisplay:10.37,2013-02-03 02:01:00,
2013-02-02 21:06:00,4.1,0.3,30.07,NW,311,0.0,0.0,84,0.00,FEW,OVC,0.00,WeatherDisplay:10.37,2013-02-03 02:06:00,
2013-02-02 21:11:00,3.7,0.0,30.06,NW,311,0.0,0.0,84,0.00,FEW,OVC,0.00,WeatherDisplay:10.37,2013-02-03 02:11:00,
2013-02-02 21:16:00,3.5,-0.2,30.06,NW,311,0.0,0.0,84,0.00,FEW,OVC,0.00,WeatherDisplay:10.37,2013-02-03 02:16:00,
2013-02-02 21:21:00,3.6,0.1,30.06,NW,311,0.0,0.0,85,0.00,FEW,OVC,0.00,WeatherDisplay:10.37,2013-02-03 02:21:00,
2013-02-02 21:26:00,4.1,0.8,30.06,NW,311,0.0,0.0,86,0.00,FEW,OVC,0.00,WeatherDisplay:10.37,2013-02-03 02:26:00,
2013-02-02 21:31:00,4.3,1.3,30.06,NW,311,0.0,0.0,87,0.00,FEW,OVC,0.00,WeatherDisplay:10.37,2013-02-03 02:31:00,
2013-02-02 21:36:00,4.2,0.9,30.06,NW,311,0.0,0.0,86,0.00,FEW,OVC,0.00,WeatherDisplay:10.37,2013-02-03 02:36:00,
2013-02-02 21:41:00,3.9,0.4,30.06,NW,311,0.0,0.0,85,0.00,FEW,OVC,0.00,WeatherDisplay:10.37,2013-02-03 02:41:00,
2013-02-02 21:46:00,3.7,0.2,30.06,NW,311,0.0,0.0,85,0.00,FEW,OVC,0.00,WeatherDisplay:10.37,2013-02-03 02:46:00,
2013-02-02 21:51:00,3.7,0.2,30.06,NW,311,0.0,0.0,85,0.00,FEW,OVC,0.00,WeatherDisplay:10.37,2013-02-03 02:51:00,
2013-02-02 22:01:00,3.4,-0.1,30.05,NW,319,0.0,1.0,85,0.00,SCT,OVC,0.00,WeatherDisplay:10.37,2013-02-03 03:01:00,
2013-02-02 22:06:00,3.3,-0.2,30.06,NW,311,0.0,0.0,85,0.00,SCT,OVC,0.00,WeatherDisplay:10.37,2013-02-03 03:06:00,
2013-02-02 22:11:00,3.3,-0.2,30.05,NW,311,0.0,0.0,85,0.00,SCT,OVC,0.00,WeatherDisplay:10.37,2013-02-03 03:11:00,
2013-02-02 22:16:00,3.4,0.2,30.05,NW,311,0.0,0.0,86,0.00,SCT,OVC,0.00,WeatherDisplay:10.37,2013-02-03 03:16:00,
2013-02-02 22:21:00,3.6,0.4,30.05,NW,311,0.0,0.0,86,0.00,SCT,OVC,0.00,WeatherDisplay:10.37,2013-02-03 03:21:00,
2013-02-02 22:26:00,3.7,0.4,30.05,NW,311,0.0,0.0,86,0.00,SCT,OVC,0.00,WeatherDisplay:10.37,2013-02-03 03:26:00,
2013-02-02 22:31:00,3.6,0.1,30.05,NW,311,0.0,0.0,85,0.00,SCT,OVC,0.00,WeatherDisplay:10.37,2013-02-03 03:31:00,
2013-02-02 22:36:00,3.4,0.0,30.04,NW,311,0.0,0.0,85,0.00,SCT,OVC,0.00,WeatherDisplay:10.37,2013-02-03 03:36:00,
2013-02-02 22:41:00,3.3,-0.2,30.04,NW,311,0.0,0.0,85,0.00,SCT,OVC,0.00,WeatherDisplay:10.37,2013-02-03 03:41:00,
2013-02-02 22:46:00,3.1,-0.4,30.04,NW,311,0.0,0.0,85,0.00,SCT,OVC,0.00,WeatherDisplay:10.37,2013-02-03 03:46:00,
2013-02-02 22:51:00,3.0,-0.5,30.04,NW,311,0.0,0.0,85,0.00,SCT,OVC,0.00,WeatherDisplay:10.37,2013-02-03 03:51:00,
2013-02-02 22:56:00,3.0,-0.5,30.03,NW,311,0.0,0.0,85,0.00,SCT,OVC,0.00,WeatherDisplay:10.37,2013-02-03 03:56:00,
2013-02-02 23:01:00,3.0,-0.5,30.03,NW,311,0.0,0.0,85,0.00,BKN,OVC,0.00,WeatherDisplay:10.37,2013-02-03 04:01:00,
2013-02-02 23:06:00,3.0,-0.5,30.03,NW,311,0.0,0.0,85,0.00,BKN,OVC,0.00,WeatherDisplay:10.37,2013-02-03 04:06:00,
2013-02-02 23:11:00,2.8,-0.7,30.03,NW,311,0.0,0.0,85,0.00,BKN,OVC,0.00,WeatherDisplay:10.37,2013-02-03 04:11:00,
2013-02-02 23:16:00,2.8,-0.7,30.03,NW,311,0.0,0.0,85,0.00,BKN,OVC,0.00,WeatherDisplay:10.37,2013-02-03 04:16:00,
2013-02-02 23:21:00,2.8,-0.6,30.03,NW,311,0.0,0.0,85,0.00,BKN,OVC,0.00,WeatherDisplay:10.37,2013-02-03 04:21:00,
2013-02-02 23:26:00,3.0,-0.3,30.03,NW,311,0.0,0.0,86,0.00,BKN,OVC,0.00,WeatherDisplay:10.37,2013-02-03 04:26:00,
2013-02-02 23:31:00,3.0,-0.3,30.02,NW,311,0.0,0.0,86,0.00,BKN,OVC,0.00,WeatherDisplay:10.37,2013-02-03 04:31:00,
2013-02-02 23:36:00,3.1,-0.1,30.02,NW,311,0.0,0.0,86,0.00,BKN,OVC,0.00,WeatherDisplay:10.37,2013-02-03 04:36:00,
2013-02-02 23:41:00,3.2,-0.1,30.02,NW,311,0.0,0.0,86,0.00,BKN,OVC,0.00,WeatherDisplay:10.37,2013-02-03 04:41:00,
2013-02-02 23:46:00,3.2,0.0,30.02,NW,311,0.0,0.0,86,0.00,BKN,OVC,0.00,WeatherDisplay:10.37,2013-02-03 04:46:00,
2013-02-02 23:51:00,3.3,0.1,30.02,NW,311,0.0,0.0,86,0.00,BKN,OVC,0.00,WeatherDisplay:10.37,2013-02-03 04:51:00,
2013-02-02 23:56:00,3.4,0.2,30.02,NW,311,0.0,0.0,86,0.00,BKN,OVC,0.00,WeatherDisplay:10.37,2013-02-03 04:56:00,